This demonstration page uses our WeatherBlox Daily Observations layout. Learn more.

Left ArrowRight Arrow

39.08367, -84.50855

Hourly Observations for April 16, 2022

Temp ( °F °C ) Dew Point ( °F °C ) Humidity (%) Winds ( mph kmh ) Pressure ( in mb ) Visibility ( mi km ) Precip ( " mm )
12:53 am 00:53 Cloudy 59 15 47 8.3 64 64 WSW 12 19 29.97 1015 10 16 0.00 0.00
1:53 am 01:53 Cloudy with Light Rain 58 14.4 47 8.3 67 67 WSW 13 20 29.98 1015 10 16 0.01 0.25
2:53 am 02:53 Cloudy 58 14.4 45 7.2 62 62 SW 10 17 29.98 1015 10 16 0.00 0.00
3:53 am 03:53 Cloudy 57 13.9 46 7.8 67 67 SW 9 15 29.97 1015 10 16 0.00 0.00
4:53 am 04:53 Cloudy with Light Rain 54 12.2 47 8.3 77 77 SW 5 7 29.98 1015 9 14 0.00 0.00
5:53 am 05:53 Cloudy 52 11.1 50 10 93 93 Calm 29.98 1015 10 16 0.01 0.25
6:53 am 06:53 Cloudy 53 11.7 51 10.6 93 93 Calm 29.97 1015 10 16 0.00 0.00
7:53 am 07:53 Cloudy 53 11.7 50 10 89 89 Calm 30.00 1016 10 16 0.00 0.00
8:53 am 08:53 Cloudy 55 12.8 49 9.4 80 80 WSW 7 11 30.01 1016 10 16 0.00 0.00
9:53 am 09:53 Cloudy 56 13.3 48 8.9 75 75 W 7 11 30.02 1017 10 16 0.00 0.00
10:53 am 10:53 Cloudy 58 14.4 49 9.4 72 72 WSW 6 9 30.02 1017 10 16 0.00 0.00
11:53 am 11:53 Cloudy 57 13.9 50 10 78 78 NNW 8 13 30.03 1017 10 16 0.00 0.00
12:33 pm 12:33 Mostly Cloudy 60 15.6 51 10.6 72 72 NNW 13 20 30.03 1017 10 16 0.00 0.00
12:53 pm 12:53 Mostly Cloudy 60 15.6 50 10 70 70 NNW 6 9 30.02 1017 10 16 0.00 0.00
1:53 pm 13:53 Cloudy 61 16.1 49 9.4 65 65 WNW 10 17 30.01 1016 10 16 0.00 0.00
2:53 pm 14:53 Cloudy 59 15 48 8.9 67 67 NNW 8 13 30.01 1016 10 16 0.00 0.00
3:53 pm 15:53 Mostly Cloudy 63 17.2 47 8.3 56 56 W 13 20 30.00 1016 10 16 0.00 0.00
4:53 pm 16:53 Mostly Sunny 63 17.2 42 5.6 47 47 W 17 28 30.00 1016 10 16 0.00 0.00
5:53 pm 17:53 Partly Cloudy 62 16.7 36 2.2 38 38 W 14 22 30.01 1016 10 16 0.00 0.00
6:53 pm 18:53 Sunny 61 16.1 33 0.6 35 35 NW 10 17 30.03 1017 10 16 0.00 0.00
7:53 pm 19:53 Sunny 57 13.9 30 -1.1 36 36 NW 13 20 30.04 1017 10 16 0.00 0.00
8:53 pm 20:53 Clear 55 12.8 24 -4.4 30 30 NNW 10 17 30.07 1018 10 16 0.00 0.00
9:53 pm 21:53 Clear 52 11.1 27 -2.8 38 38 NNW 10 17 30.11 1020 10 16 0.00 0.00
10:53 pm 22:53 Clear 50 10 26 -3.3 39 39 NNW 10 17 30.14 1021 10 16 0.00 0.00
11:53 pm 23:53 Clear 47 8.3 26 -3.3 44 44 NNW 12 19 30.16 1021 10 16 0.00 0.00

Powered by AerisWeather